GEFSCGP_850_meantemp_198.txt.gz
Temperature
21 22 22 22 22 22 22 22 22 22 22 21 21 21 22 21 20 20 20 20 20 20 19 19 18 18 18 17 17 17 17 16 16 16 16 16 16 16 16 16 16 16 16 16
22 21 22 22 21 22 22 22 22 22 21 21 21 21 22 21 21 21 21 21 20 20 19 19 18 18 18 18 17 17 17 17 16 16 16 16 16 16 16 16 16 16 16 15
21 22 21 21 21 22 22 22 22 21 21 21 21 21 22 22 21 20 20 20 21 20 20 20 19 19 18 18 18 17 17 17 17 16 16 16 16 16 16 16 16 16 16 15
21 22 21 22 22 22 21 22 21 21 21 21 21 21 22 22 21 21 20 20 20 20 20 20 19 19 19 18 18 18 17 17 17 17 16 16 16 16 16 16 16 16 16 15
21 21 21 21 22 22 21 21 21 21 21 22 22 22 22 22 22 22 21 21 20 20 20 20 19 19 19 18 18 18 17 17 17 17 17 17 16 16 16 16 16 16 16 16
21 21 21 22 21 21 21 21 21 21 22 21 22 22 22 23 23 23 22 21 21 20 20 20 19 19 19 19 18 18 18 18 17 17 17 17 17 16 16 16 16 16 16 16
21 22 22 21 21 21 21 22 21 21 21 21 22 21 22 23 23 23 23 22 21 20 20 20 19 19 19 19 19 18 18 18 18 17 17 17 17 17 16 16 16 16 16 16
21 21 22 22 22 22 22 22 21 21 21 22 22 22 23 23 22 22 22 21 21 20 20 20 19 19 19 19 19 19 18 18 18 18 17 17 17 17 16 16 16 16 16 16
22 22 22 22 22 22 22 22 22 22 22 21 22 23 23 23 23 22 22 21 21 20 20 19 19 19 19 19 19 19 19 18 18 18 17 17 17 17 17 16 16 16 16 16
23 22 22 22 22 21 22 22 22 22 21 21 22 22 23 23 23 23 22 22 21 20 20 19 19 19 19 19 19 19 19 18 18 18 17 17 17 17 17 16 16 16 16 16
23 22 22 22 22 22 21 22 22 22 22 21 21 22 23 23 23 23 22 22 21 20 20 19 19 19 19 19 19 19 19 19 18 18 18 17 17 17 17 17 16 16 16 16
22 22 22 22 22 22 22 22 22 22 22 22 22 22 23 23 22 22 22 21 20 20 19 19 19 19 19 19 19 19 19 18 18 18 17 17 17 17 17 17 16 16 16 16
22 22 22 22 22 22 22 22 22 22 22 22 21 22 23 23 22 22 21 21 20 19 19 19 19 19 19 19 19 19 18 18 18 18 18 17 17 17 17 17 16 16 16 16
21 22 22 22 22 22 22 22 22 22 22 22 22 22 23 23 22 22 21 20 20 19 19 19 18 18 19 19 19 19 18 18 18 18 18 17 17 17 17 16 16 16 16 16
21 22 22 22 22 22 22 22 22 22 22 22 22 22 22 22 22 21 20 20 19 19 19 18 18 18 18 18 18 18 18 18 18 18 18 17 17 17 17 16 16 16 16 15
21 21 21 21 22 22 21 22 22 22 22 22 22 22 23 22 21 21 21 20 19 19 18 18 18 18 18 18 18 18 18 18 18 18 18 17 17 17 16 16 16 16 16 15
21 21 21 21 22 21 21 22 22 22 22 22 22 23 22 22 21 21 20 20 19 19 18 18 18 18 18 18 18 18 18 18 18 17 17 17 17 17 16 16 16 16 15 15
21 21 21 21 21 20 23 23 22 22 22 23 23 23 22 21 20 20 20 20 19 19 18 18 18 18 18 18 18 18 17 17 17 17 17 17 17 16 16 16 16 15 15 15
20 20 20 21 21 21 22 22 22 22 22 23 23 22 21 20 20 20 19 19 19 18 18 18 18 18 18 18 18 17 17 17 17 17 17 17 16 16 16 16 15 15 15 15
19 20 20 20 20 20 22 22 21 22 22 22 22 21 21 21 22 22 19 18 18 18 18 18 18 17 17 17 17 17 17 17 17 17 16 16 16 16 16 15 15 15 15 14
19 19 20 20 20 21 22 21 21 21 22 21 21 20 20 21 21 19 18 18 18 17 17 17 17 17 17 17 17 17 17 17 16 16 16 16 16 15 15 15 15 14 14 14
20 20 20 20 20 21 20 20 21 22 21 20 20 20 19 19 18 18 17 17 17 17 17 17 17 17 17 17 17 16 16 16 16 16 16 15 15 15 15 15 14 14 14 14
20 20 21 21 21 20 19 20 19 19 20 19 19 19 18 18 18 17 17 16 16 16 16 16 16 16 16 16 16 16 16 16 16 16 15 15 15 15 15 14 14 14 13 13
19 18 19 20 20 19 18 18 18 18 18 18 18 18 18 17 17 17 16 16 16 16 16 16 16 16 16 16 16 16 16 16 15 15 15 15 14 14 14 14 14 13 13 13
19 18 19 19 20 19 18 18 17 17 17 17 17 17 17 17 17 16 16 15 15 15 15 15 15 15 15 15 15 15 15 15 15 15 14 14 14 13 13 13 13 13 12 12
18 18 18 19 19 20 19 17 17 17 17 17 17 16 16 16 16 16 15 15 15 15 15 15 15 15 15 15 15 15 15 14 14 14 14 14 13 13 13 12 12 12 12 12

GEFSCGP_850_meantemp_204.txt.gz
Temperature
24 23 22 23 24 24 24 23 23 23 24 24 23 22 22 22 22 22 22 22 22 21 21 21 20 20 19 19 19 18 18 18 17 17 17 17 17 17 17 16 16 16 17 17
23 23 24 25 25 24 24 23 23 23 24 24 23 22 22 22 22 22 22 22 22 22 21 21 20 20 19 19 19 18 18 18 17 17 17 17 17 17 17 16 16 16 16 16
23 23 25 25 24 24 24 23 23 22 23 24 23 22 22 23 23 22 22 23 22 22 22 21 20 20 20 19 19 19 18 18 18 17 17 17 17 17 17 16 16 16 16 16
23 24 24 24 24 24 23 24 24 23 22 22 23 21 22 23 22 22 22 23 23 22 22 21 21 20 20 19 19 19 19 18 18 17 17 17 17 17 17 16 16 16 16 16
23 24 24 23 24 24 23 24 24 23 22 22 23 22 22 23 22 23 23 23 23 22 22 21 21 21 20 20 19 19 19 18 18 18 17 17 17 17 17 17 16 16 16 16
24 24 24 24 24 24 24 24 23 23 22 21 23 23 22 23 23 23 23 23 23 22 22 21 21 21 20 20 19 19 19 18 18 18 17 17 17 17 17 17 16 16 16 16
23 24 25 25 24 24 24 22 21 21 20 21 24 23 23 24 25 24 24 23 23 22 22 21 21 20 20 20 19 19 19 18 18 18 17 17 17 17 17 17 17 17 16 16
22 22 24 25 24 23 23 22 20 20 21 22 24 23 24 25 25 24 24 23 23 22 22 21 21 20 20 20 19 19 19 18 18 18 17 17 17 17 17 17 17 17 17 16
23 23 25 25 25 24 23 23 23 22 22 22 23 24 24 25 24 24 24 23 23 22 22 21 21 20 20 20 19 19 19 18 18 18 18 17 17 17 17 17 17 17 17 16
24 23 24 25 25 24 24 24 23 22 21 21 22 22 22 23 24 24 23 23 23 22 22 21 20 20 20 19 19 19 19 18 18 18 18 17 17 17 17 17 17 17 17 16
24 23 23 24 24 24 24 24 24 23 22 21 20 21 24 23 24 24 23 23 23 22 21 21 20 20 20 19 19 19 19 18 18 18 18 17 17 17 17 17 17 17 17 16
24 23 23 24 25 25 25 24 24 22 22 22 21 21 24 24 24 24 24 23 23 22 21 21 20 20 19 19 19 19 19 18 18 18 18 18 17 17 17 17 17 16 16 16
23 23 22 22 23 24 24 25 24 24 23 22 21 22 24 24 24 24 23 23 22 22 21 21 20 19 19 19 19 19 18 18 18 18 18 17 17 17 17 17 16 16 16 16
22 23 22 21 22 23 23 24 24 24 22 22 22 22 23 23 23 23 23 22 22 21 21 20 20 19 19 19 19 19 18 18 18 18 18 17 17 17 17 17 16 16 16 16
23 22 23 23 24 24 24 23 24 23 23 22 23 23 24 23 23 23 23 22 22 21 21 20 20 19 19 19 19 19 18 18 18 18 17 17 17 17 17 16 16 16 16 16
24 23 23 23 24 24 24 24 24 24 24 23 23 23 24 24 24 23 23 22 21 21 20 20 19 19 19 19 19 18 18 18 18 17 17 17 17 17 16 16 16 16 15 15
23 23 22 22 23 23 23 24 24 24 24 24 23 23 24 23 23 23 22 22 21 21 20 20 19 19 19 19 19 18 18 18 18 17 17 17 17 16 16 16 16 15 15 15
23 22 22 22 22 21 23 25 25 24 24 24 24 24 23 23 23 22 22 21 20 20 20 19 19 19 19 19 18 18 18 18 17 17 17 16 16 16 16 16 15 15 15 15
23 22 21 21 21 21 23 24 24 24 23 24 24 23 23 23 22 22 21 21 20 20 19 19 19 19 19 19 18 18 18 17 17 17 16 16 16 16 15 15 15 15 15 14
23 23 22 21 20 20 22 24 24 24 22 23 23 23 23 22 21 20 20 20 20 19 19 19 19 19 19 18 18 18 17 17 17 16 16 16 16 15 15 15 15 14 14 14
22 21 21 21 21 21 23 24 24 22 22 23 23 22 22 21 21 20 20 19 19 19 18 18 18 18 18 18 18 17 17 17 17 16 16 16 15 15 15 15 14 14 14 14
21 21 21 21 20 20 23 23 22 22 23 22 22 21 21 20 20 19 19 18 18 18 18 18 18 18 18 18 18 17 17 17 16 16 16 15 15 15 14 14 14 14 13 13
22 21 21 21 21 22 22 22 22 22 22 21 21 21 20 19 19 18 18 18 18 17 17 17 17 17 17 17 17 17 17 16 16 16 15 15 15 14 14 14 14 13 13 13
21 22 21 21 21 21 21 21 21 21 21 20 20 20 19 19 18 18 18 17 17 17 17 17 17 17 17 16 16 16 16 16 16 15 15 15 14 14 14 14 13 13 13 12
20 20 21 21 21 21 20 20 20 20 19 19 19 19 18 18 18 17 17 17 17 16 16 16 16 16 16 16 16 16 15 15 15 15 14 14 14 14 13 13 13 13 12 12
19 19 19 19 20 20 20 20 19 19 19 18 18 18 18 17 17 17 16 16 16 16 16 15 15 15 15 15 15 15 15 15 14 14 14 14 13 13 13 13 12 12 12 12

GEFSCGP_850_meantemp_210.txt.gz
Temperature
21 18 18 19 19 20 20 19 19 20 20 20 19 19 18 19 19 19 19 19 19 20 20 20 19 19 19 19 18 18 18 18 18 17 17 17 17 17 17 17 17 16 16 16
18 18 20 20 20 20 20 19 19 20 21 20 19 19 18 18 18 19 19 19 20 20 20 20 19 19 19 19 19 18 18 18 18 17 17 17 17 17 17 17 16 16 16 16
19 20 21 21 20 20 20 19 19 19 20 19 19 18 18 18 19 19 20 20 20 20 20 20 20 19 19 19 19 19 18 18 18 17 17 17 17 17 16 16 16 16 16 16
19 20 21 21 21 20 19 20 20 20 18 17 19 17 17 17 18 18 19 20 20 20 20 20 20 20 19 19 19 19 18 18 18 17 17 17 17 17 17 16 16 16 16 16
19 20 21 20 21 21 20 21 20 20 18 17 18 17 17 17 18 18 18 19 20 20 20 20 20 20 20 19 19 19 18 18 18 18 17 17 17 17 16 16 16 16 16 16
20 21 21 21 21 21 21 20 19 17 17 17 18 18 17 17 18 19 19 19 20 20 20 20 20 20 20 19 19 19 19 18 18 18 17 17 17 17 17 16 16 16 16 16
20 20 21 22 21 20 20 17 17 17 16 17 18 18 18 19 19 19 19 20 20 20 20 20 20 20 19 19 19 19 19 18 18 18 18 17 17 17 17 17 16 16 16 16
18 18 20 21 20 20 19 18 17 17 17 17 18 18 18 20 20 20 20 20 20 20 20 20 20 20 20 19 19 19 19 18 18 18 18 17 17 17 17 17 17 16 16 16
18 19 21 22 21 20 19 18 18 17 17 17 17 18 19 20 19 19 19 19 20 20 20 20 20 20 20 19 19 19 19 18 18 18 18 17 17 17 17 17 17 16 16 16
19 19 20 21 21 21 20 19 17 17 17 17 17 18 17 19 19 18 18 19 19 20 20 20 20 20 20 19 19 19 19 18 18 18 18 17 17 17 17 17 17 16 16 16
19 18 19 20 20 20 20 19 18 16 16 16 16 17 19 18 18 18 18 19 19 20 20 20 20 20 19 19 19 19 18 18 18 18 18 17 17 17 17 17 16 16 16 16
18 16 17 18 20 20 20 19 18 17 16 16 16 16 19 18 19 19 19 20 20 20 20 20 20 19 19 19 19 19 18 18 18 18 17 17 17 17 17 16 16 16 16 16
18 17 16 17 18 19 20 20 19 17 16 15 16 17 19 18 19 19 20 20 20 20 19 19 19 19 19 19 19 19 18 18 18 18 17 17 17 17 17 16 16 16 16 16
18 16 16 17 17 18 19 19 19 17 16 16 16 17 18 18 18 18 19 19 20 19 19 19 19 19 19 19 19 18 18 18 18 18 17 17 17 17 16 16 16 16 16 15
17 17 17 18 19 19 19 19 19 18 17 17 17 17 18 18 18 19 19 19 19 19 19 19 19 19 19 18 18 18 18 18 18 17 17 17 17 16 16 16 16 16 15 15
16 17 17 18 19 19 19 19 19 19 19 18 18 18 18 19 19 19 19 19 18 18 18 18 18 18 18 18 18 18 18 18 17 17 17 17 16 16 16 16 16 15 15 15
16 16 16 16 17 18 18 19 19 19 19 18 18 18 18 18 18 18 18 18 18 18 18 18 18 18 18 18 18 18 18 17 17 17 17 16 16 16 16 15 15 15 15 15
16 15 14 15 17 17 18 19 19 19 19 18 18 18 18 18 19 19 19 19 18 18 18 18 18 18 18 18 18 18 17 17 17 17 16 16 16 16 15 15 15 15 15 14
16 16 14 14 15 16 18 19 19 19 18 18 18 18 18 18 18 17 18 18 18 18 18 18 18 18 18 17 17 17 17 17 17 16 16 16 16 15 15 15 15 14 14 14
15 15 15 14 16 16 17 19 20 19 17 18 18 17 17 17 15 16 18 18 18 18 18 18 18 17 17 17 17 17 17 17 16 16 16 16 16 15 15 15 14 14 14 14
16 15 14 14 15 16 17 19 19 18 17 18 18 18 18 17 17 18 18 17 17 17 17 17 17 17 17 17 17 17 16 16 16 16 16 16 15 15 15 14 14 14 13 13
15 15 14 14 15 16 18 18 17 17 18 18 18 18 18 18 18 17 17 17 17 17 17 17 17 17 16 16 16 16 16 16 16 16 15 15 15 15 14 14 14 13 13 13
14 14 14 14 15 16 18 18 18 19 18 18 18 18 18 17 17 17 17 17 17 16 16 16 16 16 16 16 16 16 16 16 16 15 15 15 15 14 14 14 13 13 13 13
14 14 13 14 15 16 17 18 18 18 18 18 18 18 17 17 17 17 16 16 16 16 16 16 16 16 15 15 16 16 15 15 15 15 15 15 14 14 14 13 13 13 13 12
13 14 13 13 14 15 16 17 17 17 17 17 17 17 17 17 16 16 16 16 16 15 15 15 15 15 15 15 15 15 15 15 15 15 15 14 14 14 13 13 13 12 12 12
13 13 13 13 15 14 15 16 16 16 16 16 16 16 16 16 16 16 15 15 15 15 15 15 14 14 14 14 14 14 14 14 14 14 14 14 14 13 13 13 12 12 12 12

GEFSCGP_850_meantemp_216.txt.gz
Temperature
19 17 17 17 18 18 18 18 17 18 18 18 17 17 17 17 17 17 17 18 18 19 19 19 19 18 18 18 18 18 17 17 17 17 17 17 17 16 16 16 16 16 16 16
17 17 18 18 18 18 18 18 17 18 18 18 17 17 17 17 17 17 17 18 18 19 19 19 19 18 18 18 18 18 18 17 17 17 17 17 17 17 16 16 16 16 16 16
18 18 19 19 19 18 18 18 18 18 18 17 17 17 17 17 17 17 18 18 18 19 19 19 19 19 19 18 18 18 18 18 17 17 17 17 17 16 16 16 16 16 16 16
18 18 19 19 19 19 18 18 18 18 17 16 17 16 17 16 16 17 17 18 19 19 19 19 19 19 19 19 19 18 18 18 17 17 17 17 17 16 16 16 16 16 16 16
18 18 19 19 19 19 18 18 18 17 17 16 16 16 16 16 17 17 17 18 19 19 19 19 19 19 19 19 19 18 18 18 17 17 17 17 16 16 16 16 16 16 16 16
18 19 19 19 19 19 18 18 17 15 15 16 16 16 16 16 17 17 17 18 19 19 19 19 19 19 19 19 19 18 18 18 18 17 17 17 16 16 16 16 16 16 16 16
18 18 19 19 19 18 17 16 16 16 15 16 16 16 16 17 17 17 17 18 18 19 19 19 19 19 19 19 19 18 18 18 18 17 17 17 17 16 16 16 16 16 16 16
17 17 18 19 18 18 17 16 16 16 16 15 16 16 17 17 18 18 18 18 19 19 19 19 19 19 19 19 19 18 18 18 18 17 17 17 17 16 16 16 16 16 16 16
17 17 19 19 19 18 17 16 16 15 16 15 15 16 17 18 17 17 17 18 18 19 19 19 19 19 19 19 19 18 18 18 18 17 17 17 17 16 16 16 16 16 16 15
17 17 18 18 19 18 18 16 15 15 16 15 16 16 16 17 17 17 16 17 18 18 19 19 19 19 19 19 19 18 18 18 18 17 17 17 17 16 16 16 16 16 16 15
17 17 17 18 18 18 17 16 15 14 15 15 15 16 17 17 17 16 16 18 18 18 19 19 19 19 19 19 19 18 18 18 18 17 17 17 17 16 16 16 16 16 15 15
16 14 15 17 18 18 18 17 15 16 15 14 14 15 17 17 17 17 17 18 18 18 18 19 19 19 18 18 18 18 18 18 17 17 17 17 17 16 16 16 16 16 15 15
16 15 15 16 17 17 17 17 16 14 14 13 14 16 17 16 17 17 17 18 18 18 18 18 18 18 18 18 18 18 18 18 17 17 17 17 16 16 16 16 16 15 15 15
16 14 15 16 16 16 17 17 16 15 14 14 14 16 16 16 16 16 17 18 18 18 18 18 18 18 18 18 18 18 18 18 17 17 17 17 16 16 16 15 15 15 15 15
15 15 16 16 16 16 17 17 16 16 15 15 15 15 16 16 16 17 17 17 17 17 17 17 17 18 18 18 18 18 17 17 17 17 17 16 16 16 15 15 15 15 15 14
14 15 16 16 16 16 17 17 16 16 16 15 16 16 16 17 17 16 17 17 17 17 17 17 17 17 17 17 17 17 17 17 17 17 16 16 16 16 15 15 15 15 14 14
13 14 14 14 15 16 16 17 17 17 16 16 16 16 16 15 15 16 16 16 17 17 17 17 17 17 17 17 17 17 17 17 16 16 16 16 16 15 15 15 15 14 14 14
13 13 12 13 15 16 16 17 17 17 16 15 16 16 16 16 16 17 17 17 17 16 16 16 16 16 17 17 16 16 16 16 16 16 16 16 15 15 15 15 14 14 14 14
12 12 12 12 14 15 16 16 16 16 16 15 15 15 15 15 16 16 17 17 17 17 17 16 16 17 16 16 16 16 16 16 16 16 16 15 15 15 15 14 14 14 14 14
12 12 12 12 14 15 16 17 17 16 16 16 15 15 15 15 13 14 16 16 16 16 16 16 16 16 16 16 16 16 16 16 16 15 15 15 15 15 14 14 14 14 13 13
13 12 12 12 13 14 15 16 16 16 15 16 16 16 15 15 15 16 16 16 16 16 16 16 16 16 16 15 15 15 15 15 15 15 15 15 14 14 14 14 14 13 13 13
12 12 11 11 13 14 15 15 14 15 16 16 16 16 16 16 16 16 16 16 16 16 16 16 16 15 15 15 15 15 15 15 15 15 14 14 14 14 14 14 13 13 13 13
11 12 11 12 13 14 15 15 16 16 16 16 16 16 16 15 15 15 15 15 15 15 15 15 15 15 15 14 14 14 14 14 14 14 14 14 14 14 13 13 13 13 13 12
11 11 11 11 12 14 15 15 16 16 16 16 16 16 16 15 15 15 15 15 15 14 14 14 14 14 14 14 14 14 14 14 14 14 14 14 13 13 13 13 13 12 12 12
11 10 11 11 12 13 15 15 15 16 16 16 16 15 15 15 15 15 14 14 14 14 14 14 14 14 14 13 13 13 13 13 13 13 13 13 13 13 13 12 12 12 12 12
10 11 11 12 13 13 14 15 15 15 15 15 15 15 15 15 14 14 14 14 14 14 14 14 13 13 13 13 13 13 13 13 13 13 13 13 12 12 12 12 12 11 11 11

GEFSCGP_850_meantemp_222.txt.gz
Temperature
22 23 23 23 23 23 23 22 22 22 22 22 22 22 22 21 21 21 20 20 20 20 19 19 18 18 18 18 18 17 17 17 17 17 17 16 16 16 16 16 16 16 16 16
23 22 23 23 22 22 22 22 22 22 22 22 22 22 22 21 21 21 21 20 20 20 20 19 18 18 18 18 18 18 17 17 17 17 17 16 16 16 16 16 16 16 16 16
23 22 22 23 22 22 22 22 22 22 22 22 22 22 22 22 21 20 20 20 20 20 20 19 18 18 18 18 18 18 17 17 17 17 17 17 16 16 16 16 16 16 16 16
22 22 22 22 22 22 22 22 22 22 22 22 22 22 22 22 22 21 21 20 20 19 19 19 19 18 18 18 18 18 18 17 17 17 17 16 16 16 16 16 16 16 16 16
22 22 22 22 22 22 22 22 22 22 22 22 22 22 23 22 22 22 21 20 20 19 19 19 19 18 18 18 18 18 18 17 17 17 17 16 16 16 16 16 16 16 16 16
22 22 22 22 22 22 22 22 22 22 23 22 22 22 22 23 22 22 22 21 20 19 19 19 19 18 18 18 18 18 17 17 17 17 16 16 16 16 16 16 16 16 15 15
22 22 22 22 22 22 22 22 22 22 22 22 22 22 22 23 22 22 22 21 20 19 19 19 19 18 18 18 18 18 17 17 17 17 17 16 16 16 16 16 16 16 15 15
22 22 22 22 22 22 22 22 22 21 22 22 22 22 23 22 22 21 21 20 20 19 19 19 18 18 18 18 18 18 18 17 17 17 17 17 16 16 16 16 16 16 15 15
22 22 22 22 22 23 22 22 22 22 22 22 22 23 23 22 22 22 21 20 20 19 19 18 18 18 18 18 18 18 18 17 17 17 17 17 16 16 16 16 16 16 15 15
23 22 22 22 22 22 23 22 22 22 21 21 22 22 22 22 22 22 21 20 20 19 18 18 18 18 18 18 18 18 17 17 17 17 17 16 16 16 16 16 16 15 15 15
22 22 22 22 22 22 22 22 22 22 22 22 21 22 23 22 22 21 21 20 19 19 18 18 18 17 17 17 18 18 17 17 17 17 16 16 16 16 16 16 15 15 15 15
21 22 22 22 22 21 22 22 22 21 21 22 22 22 22 22 21 21 20 20 19 18 18 17 17 17 17 17 17 17 17 17 17 16 16 16 16 16 15 15 15 15 15 15
21 21 21 21 21 21 21 21 21 22 22 22 21 22 22 22 21 20 20 19 19 18 17 17 17 17 17 17 17 17 17 17 17 16 16 16 15 15 15 15 15 15 15 14
20 21 21 21 21 21 21 21 21 21 21 21 22 22 22 22 21 20 19 19 18 17 17 17 16 16 16 16 16 16 16 16 16 16 16 16 15 15 15 15 15 15 14 14
21 21 21 21 21 20 21 21 20 21 21 21 22 22 22 22 21 20 19 18 17 17 17 16 16 16 16 16 16 16 16 16 16 16 16 16 15 15 15 15 15 14 14 14
20 20 21 20 20 20 20 20 20 20 21 21 21 21 22 21 20 20 19 18 17 17 16 16 16 16 16 16 16 16 16 16 16 16 15 16 15 15 15 15 15 14 14 14
20 20 20 20 20 20 20 21 21 21 21 21 21 22 21 21 20 19 19 18 17 17 16 16 16 16 15 15 15 15 15 15 15 15 15 15 15 15 15 15 14 14 14 14
20 20 20 20 20 19 22 21 21 21 21 21 21 21 21 20 19 18 18 17 17 16 16 15 15 15 15 15 15 15 15 15 15 15 15 15 15 15 14 14 14 14 13 13
19 19 19 19 19 20 21 20 20 20 21 21 21 20 19 18 18 18 17 16 16 16 15 15 15 15 15 15 15 15 15 14 14 14 15 15 15 14 14 14 14 14 13 13
18 19 19 19 19 19 21 20 19 20 20 20 20 19 19 18 20 19 16 16 15 15 15 15 14 14 14 14 14 14 14 14 14 14 14 14 14 14 14 14 14 13 13 13
18 18 18 19 19 20 20 18 19 19 20 19 18 18 18 18 19 17 16 15 15 15 15 14 14 14 14 14 14 14 14 14 14 14 14 14 14 14 14 13 13 13 13 12
19 19 18 19 18 19 18 18 19 20 18 18 17 17 17 17 16 15 15 15 14 14 14 14 14 14 14 14 14 13 13 13 13 13 13 13 13 13 13 13 13 12 12 12
18 19 19 19 19 18 17 17 17 16 17 17 16 16 16 15 15 15 15 14 14 14 14 14 14 14 13 13 13 13 13 13 13 13 13 13 13 13 13 12 12 12 12 11
18 17 17 18 18 17 16 16 15 15 15 15 15 15 15 15 15 14 14 14 14 14 14 13 13 13 13 13 13 13 13 12 12 12 12 12 12 12 12 12 12 12 11 11
17 16 17 17 18 16 16 15 15 15 15 14 15 14 14 14 14 14 14 14 13 13 13 13 13 13 13 13 12 12 12 12 12 12 12 12 12 12 12 12 11 11 11 11
16 16 17 17 17 17 17 15 15 14 14 14 14 14 14 14 14 13 13 13 13 13 13 13 12 12 12 12 12 12 12 12 11 11 11 11 11 11 11 11 11 11 10 10

GEFSCGP_850_meantemp_228.txt.gz
Temperature
24 24 23 24 25 25 25 24 23 24 25 24 23 23 23 23 23 23 22 22 22 21 21 21 20 20 20 19 19 19 18 18 18 18 17 17 17 17 17 17 17 17 17 17
24 24 25 26 26 25 24 24 23 24 25 24 23 23 23 23 23 23 23 22 22 21 21 21 20 20 19 19 19 18 18 18 18 17 17 17 17 17 17 17 17 16 16 16
24 25 26 25 25 25 24 24 23 23 24 24 23 22 23 23 23 23 22 22 22 21 21 20 20 20 19 19 19 18 18 18 18 17 17 17 17 17 17 17 16 16 16 16
25 25 25 25 24 24 24 24 24 23 23 23 24 22 22 23 23 23 22 22 22 21 21 20 20 19 19 19 19 19 18 18 17 17 17 17 17 17 16 16 16 16 16 16
24 25 24 24 24 25 24 25 24 24 23 23 24 23 22 23 22 22 23 22 22 21 21 20 20 19 19 19 19 18 18 18 17 17 17 17 17 17 16 16 16 16 16 16
25 26 25 25 25 25 25 24 24 24 23 22 24 23 22 23 23 23 23 22 22 21 21 20 20 19 19 19 18 18 18 18 17 17 17 17 17 17 16 16 16 16 16 16
25 25 26 25 24 25 25 23 22 22 22 22 24 24 23 24 24 24 23 23 22 21 21 20 19 19 19 18 18 18 18 17 17 17 17 17 17 16 16 16 16 16 16 16
24 24 25 25 24 24 24 23 21 21 22 23 24 23 23 25 24 24 24 23 22 21 21 20 19 19 19 18 18 18 17 17 17 17 17 17 17 16 16 16 16 16 16 15
24 24 25 25 25 25 24 24 24 23 23 23 23 24 24 24 24 24 23 23 22 21 20 20 19 19 18 18 18 18 17 17 17 17 17 16 16 16 16 16 16 16 15 15
24 23 24 25 25 25 24 24 24 23 22 22 23 23 23 23 23 23 23 22 22 21 20 20 19 19 18 18 18 17 17 17 17 17 16 16 16 16 16 15 15 15 15 15
24 23 23 24 24 24 24 24 23 23 23 22 21 22 24 23 23 22 22 22 21 21 20 19 19 18 18 18 18 17 17 17 17 17 16 16 16 16 15 15 15 15 15 15
24 23 22 23 24 25 24 24 23 21 22 23 22 22 24 24 23 23 22 21 21 20 20 19 19 18 18 18 17 17 17 17 17 16 16 16 15 15 15 15 15 15 15 15
22 22 21 22 23 23 23 24 23 23 22 22 22 22 24 24 23 22 22 21 20 20 19 19 18 18 17 17 17 17 17 17 17 16 16 16 15 15 15 15 15 15 15 15
21 22 21 21 22 23 23 23 23 22 21 22 22 22 23 23 22 22 21 21 20 20 19 19 18 18 17 17 17 17 17 17 16 16 16 16 15 15 15 15 15 15 14 14
23 22 22 22 23 24 23 23 23 22 22 22 22 23 23 22 22 21 21 21 20 19 19 18 18 17 17 17 16 16 16 16 16 16 16 16 15 15 15 15 15 14 14 14
23 22 22 22 23 23 23 23 23 23 23 22 22 22 23 23 22 21 21 20 20 19 19 18 18 17 17 16 16 16 16 16 16 16 16 15 15 15 15 15 14 14 14 14
22 22 21 21 23 23 22 23 23 23 23 23 22 22 23 22 22 21 21 20 20 19 18 18 18 17 17 16 16 16 16 16 16 16 15 15 15 15 15 14 14 14 14 14
22 22 22 21 22 20 22 24 24 23 23 23 23 23 23 22 22 21 20 20 19 19 18 18 17 17 16 16 16 15 15 15 15 15 15 15 15 15 14 14 14 14 13 13
23 21 21 21 20 21 22 23 23 22 22 23 22 22 22 21 21 20 20 19 18 18 18 17 17 17 16 16 15 15 15 15 15 15 15 15 15 14 14 14 13 13 13 13
22 22 21 20 20 20 21 22 22 22 21 22 22 22 21 21 19 19 19 18 17 17 17 17 16 16 16 15 15 15 15 15 15 15 14 14 14 14 14 13 13 13 13 13
21 21 20 20 20 20 21 22 22 20 20 21 21 21 20 20 19 19 18 17 17 17 16 16 16 15 15 15 15 14 14 14 14 14 14 14 13 13 13 13 13 13 12 12
21 20 20 20 19 19 21 21 20 20 21 20 20 20 19 19 18 18 17 17 16 16 15 15 15 15 14 14 14 14 14 14 14 13 13 13 13 13 13 13 12 12 12 12
21 21 20 20 20 20 20 20 20 20 20 20 19 19 18 18 17 17 16 16 15 15 15 15 14 14 14 14 14 13 13 13 13 13 13 12 12 12 12 12 12 12 12 12
21 21 20 20 20 20 20 19 19 19 19 19 18 18 18 17 17 16 16 15 15 15 14 14 14 14 14 13 13 13 13 13 13 12 12 12 12 12 12 12 12 12 11 11
19 20 19 19 19 19 19 19 18 18 18 18 18 17 17 17 16 16 15 15 15 14 14 14 14 14 13 13 13 13 13 12 12 12 12 12 11 11 11 11 11 11 11 11
19 18 18 18 18 18 18 18 18 18 17 17 17 17 16 16 16 15 15 15 14 14 14 14 13 13 13 13 13 12 12 12 12 12 11 11 11 11 11 11 11 11 10 10

GEFSCGP_850_meantemp_234.txt.gz
Temperature
21 19 18 19 20 20 20 20 20 20 20 20 19 19 19 19 20 19 19 19 19 19 19 19 19 19 19 19 18 18 18 18 18 17 17 17 17 17 17 17 16 16 16 16
19 19 21 21 21 21 20 20 19 20 20 20 19 19 19 19 19 20 19 19 19 19 19 19 19 19 19 19 18 18 18 18 18 17 17 17 17 17 16 16 16 16 16 16
20 21 22 22 21 21 20 20 19 20 20 19 19 18 18 19 19 19 19 19 19 19 19 19 19 19 19 18 18 18 18 18 17 17 17 17 17 16 16 16 16 16 16 16
21 21 22 21 21 21 20 21 21 20 19 17 18 17 18 18 18 18 19 19 19 19 19 19 19 19 19 18 18 18 18 17 17 17 17 17 17 16 16 16 16 16 16 16
20 22 22 21 22 21 20 21 21 20 19 18 18 17 17 17 18 18 18 19 19 19 19 19 19 19 19 18 18 18 18 17 17 17 17 17 17 16 16 16 16 16 16 16
21 22 22 22 22 22 21 20 19 18 17 17 18 17 17 17 18 18 18 19 19 19 19 19 19 19 19 18 18 18 18 17 17 17 17 16 16 16 16 16 16 16 16 16
20 21 22 22 21 21 20 18 17 17 16 17 18 18 17 18 18 19 18 19 19 19 19 19 18 19 18 18 18 18 17 17 17 17 16 16 16 16 16 16 16 16 16 15
19 19 21 22 21 20 20 18 17 17 17 17 18 18 18 19 20 20 20 19 19 19 19 18 18 18 18 18 18 18 17 17 17 17 16 16 16 16 16 16 16 15 15 15
19 19 21 22 22 21 20 18 18 17 17 17 17 18 19 19 18 19 19 18 18 18 18 18 18 18 18 18 18 17 17 17 17 17 16 16 16 16 15 15 15 15 15 15
20 19 20 21 21 21 20 19 16 17 17 17 18 18 17 18 18 18 18 18 18 18 18 18 18 18 18 18 18 17 17 17 17 16 16 16 16 15 15 15 15 15 15 15
19 18 19 19 20 20 20 19 17 16 16 16 16 17 18 17 18 17 18 18 18 18 18 18 18 18 17 17 17 17 17 17 17 16 16 16 15 15 15 15 15 15 15 14
18 16 17 18 20 20 20 19 17 17 17 16 15 16 19 18 18 18 18 18 18 18 18 18 18 17 17 17 17 17 17 16 16 16 16 16 15 15 15 15 15 15 14 14
18 16 16 17 18 19 19 19 18 16 15 15 15 17 18 18 18 18 18 18 18 18 18 18 17 17 17 17 17 16 16 16 16 16 16 15 15 15 15 15 15 14 14 14
18 16 16 17 17 18 18 19 19 17 15 16 16 17 18 17 17 18 18 18 18 18 17 17 17 17 17 16 16 16 16 16 16 16 15 15 15 15 15 15 14 14 14 14
17 16 17 17 18 18 19 19 19 18 17 16 17 17 17 17 17 18 18 18 17 17 17 17 17 17 16 16 16 16 16 16 15 15 15 15 15 15 15 14 14 14 14 14
16 17 17 17 18 18 18 19 19 19 18 17 17 17 17 18 18 18 18 17 17 17 17 17 17 16 16 16 16 16 15 15 15 15 15 15 15 15 14 14 14 14 14 14
15 16 16 16 17 17 17 18 18 18 18 18 17 17 17 16 17 17 17 17 17 17 17 17 17 16 16 16 16 15 15 15 15 15 14 14 14 14 14 14 14 14 13 13
16 15 14 15 16 17 17 18 18 18 18 17 17 17 17 17 17 18 18 17 17 17 17 17 17 16 16 16 15 15 15 15 15 14 14 14 14 14 14 14 14 13 13 13
15 15 14 14 15 16 17 18 18 18 17 17 17 17 17 17 17 16 17 17 17 17 17 17 17 16 16 16 15 15 15 15 14 14 14 14 14 14 14 14 13 13 13 13
15 14 14 14 15 16 16 18 19 18 16 17 17 16 16 16 14 15 17 17 17 17 17 16 16 16 16 15 15 15 15 14 14 14 14 13 13 13 13 13 13 13 13 12
15 14 14 14 14 15 16 18 18 16 16 17 18 17 17 16 16 17 17 17 17 16 16 16 16 15 15 15 14 14 14 14 14 13 13 13 13 13 13 13 12 12 12 12
14 14 13 13 13 14 17 17 16 16 17 18 18 18 17 17 17 17 17 16 16 16 16 15 15 15 15 14 14 14 14 14 13 13 13 13 12 12 12 12 12 12 12 12
13 13 13 13 14 15 17 17 18 18 17 17 17 17 17 17 16 16 16 16 16 15 15 15 15 14 14 14 14 14 13 13 13 13 12 12 12 12 12 11 11 11 11 11
13 14 13 13 14 15 17 17 17 17 17 17 17 17 17 17 16 16 16 15 15 15 15 14 14 14 14 14 13 13 13 13 13 12 12 12 12 11 11 11 11 11 11 11
13 13 12 12 13 15 16 16 16 16 16 16 16 16 16 16 16 16 15 15 15 14 14 14 14 14 13 13 13 13 13 12 12 12 12 11 11 11 11 11 11 10 10 10
12 12 12 12 14 13 14 15 16 15 15 16 16 15 15 15 15 15 15 14 14 14 14 13 13 13 13 13 13 12 12 12 12 12 11 11 11 11 10 10 10 10 10 10

GEFSCGP_850_meantemp_240.txt.gz
Temperature
19 17 17 18 18 19 19 18 18 18 18 18 17 17 17 17 17 17 17 17 17 18 18 18 18 18 18 18 18 17 17 17 17 17 17 17 16 16 16 16 16 16 16 16
17 18 19 19 19 19 18 18 18 18 18 18 17 17 17 17 17 17 17 17 17 18 18 18 18 18 18 18 18 17 17 17 17 17 17 17 16 16 16 16 16 16 16 15
19 19 20 19 19 19 19 18 18 18 18 17 17 17 17 17 17 17 17 17 17 18 18 18 18 18 18 17 17 17 17 17 17 17 17 16 16 16 16 16 16 16 15 15
19 19 20 19 19 19 18 19 19 18 17 16 17 16 16 16 16 16 17 17 17 17 18 18 18 18 18 17 17 17 17 17 17 17 16 16 16 16 16 16 16 15 15 15
19 19 20 19 20 19 18 18 18 18 17 16 16 16 15 16 16 16 16 17 17 18 18 18 18 18 18 17 17 17 17 17 17 16 16 16 16 16 16 15 15 15 15 15
19 20 20 20 19 19 18 18 17 15 15 16 16 16 16 15 16 16 16 17 17 18 18 18 18 18 17 17 17 17 17 17 17 16 16 16 16 16 15 15 15 15 15 15
19 19 20 20 19 19 18 16 16 16 15 16 16 16 16 16 16 16 16 17 17 18 18 18 18 17 17 17 17 17 17 17 17 16 16 16 16 15 15 15 15 15 15 15
18 18 19 19 19 18 17 17 16 16 16 15 16 16 16 17 17 17 17 18 18 17 18 18 18 18 17 17 17 17 17 17 16 16 16 16 16 15 15 15 15 15 15 15
17 18 19 19 19 18 17 16 16 15 16 15 15 16 16 17 16 16 17 17 17 18 18 17 17 17 17 17 17 17 17 16 16 16 16 16 15 15 15 15 15 15 15 14
18 18 19 18 19 18 17 15 14 15 16 16 16 16 16 16 16 15 15 16 17 17 17 17 17 17 17 17 17 17 17 16 16 16 16 15 15 15 15 15 15 14 14 14
17 17 18 18 18 18 17 16 14 14 14 15 15 16 16 16 16 15 16 17 17 17 18 17 17 17 17 17 17 16 16 16 16 16 16 15 15 15 15 14 14 14 14 14
16 15 16 17 17 17 17 16 15 15 15 14 14 15 17 16 16 16 16 17 18 18 18 17 17 17 17 17 16 16 16 16 16 16 15 15 15 15 14 14 14 14 14 14
16 15 16 16 17 17 17 16 15 14 13 13 14 15 16 15 16 16 16 17 17 17 17 17 17 17 17 16 16 16 16 16 16 15 15 15 15 14 14 14 14 14 14 14
16 15 15 17 16 16 17 17 15 15 14 13 14 15 16 15 15 15 16 17 17 17 17 17 16 16 16 16 16 16 16 15 15 15 15 15 14 14 14 14 14 14 13 13
15 15 16 16 16 16 17 17 16 15 14 14 15 15 15 15 15 15 16 16 16 16 16 16 16 16 16 16 16 16 15 15 15 15 15 14 14 14 14 14 14 14 13 13
14 15 16 16 16 16 16 16 16 16 15 15 15 15 15 15 15 15 16 16 16 16 16 16 16 16 16 16 16 15 15 15 15 15 14 14 14 14 14 14 13 13 13 13
13 14 15 14 15 16 15 16 16 16 15 15 15 15 15 14 14 15 16 16 16 16 16 16 16 16 16 16 16 15 15 15 15 14 14 14 14 14 13 13 13 13 13 13
13 13 12 13 15 16 15 16 16 16 15 15 15 14 14 15 15 16 16 16 16 16 16 16 16 16 16 16 15 15 15 14 14 14 14 13 13 13 13 13 13 13 12 12
12 13 12 12 14 14 15 16 15 15 16 15 14 14 15 15 15 15 16 16 16 16 16 16 16 16 16 15 15 15 14 14 14 14 14 13 13 13 13 13 13 12 12 12
11 12 12 12 14 14 15 16 16 16 15 15 15 14 14 14 13 14 16 16 16 16 16 16 16 15 15 15 14 14 14 14 14 13 13 13 13 13 12 12 12 12 12 12
12 11 11 11 13 13 14 15 16 15 15 15 15 15 14 14 14 16 16 16 16 16 16 15 15 15 15 14 14 14 14 14 13 13 13 13 12 12 12 12 12 12 11 11
12 11 11 10 12 13 14 14 14 14 16 16 16 16 15 15 15 15 16 16 16 16 15 15 15 15 14 14 14 14 14 13 13 13 13 12 12 12 12 12 11 11 11 11
11 11 11 11 12 14 14 14 15 15 15 15 15 16 15 15 15 15 15 15 15 15 15 15 14 14 14 14 13 13 13 13 13 12 12 12 12 12 11 11 11 11 11 11
10 11 10 10 11 13 14 15 15 15 15 15 15 15 15 15 15 14 14 15 15 15 14 14 14 14 13 13 13 13 13 12 12 12 12 12 12 11 11 11 11 11 11 10
10 10 10 10 11 13 14 14 15 15 15 15 15 15 15 14 14 14 14 14 14 14 14 13 13 13 13 13 13 12 12 12 12 12 12 11 11 11 11 11 10 10 10 10
9 10 10 11 12 12 13 14 14 14 14 14 14 14 14 14 13 14 14 13 13 13 13 13 13 12 12 12 12 12 12 12 12 11 11 11 11 11 10 10 10 10 10 9

GEFSCGP_850_meantemp_246.txt.gz
Temperature
23 23 23 23 23 23 23 23 23 22 22 22 22 22 22 21 20 21 20 20 20 19 18 18 17 17 17 17 17 17 17 16 16 16 16 16 16 16 16 16 15 15 15 15
24 23 23 23 23 23 23 23 22 22 22 22 22 22 22 21 21 20 20 20 20 19 19 18 17 17 17 17 17 17 17 16 16 16 16 16 16 16 16 16 16 15 15 15
23 23 22 22 22 23 23 23 22 22 22 22 22 22 22 22 21 20 20 20 20 19 19 18 18 17 17 17 17 17 17 16 16 16 16 16 16 16 16 16 15 15 15 15
23 23 22 23 23 23 22 23 22 22 22 22 22 22 23 23 22 21 20 20 19 19 18 18 17 17 17 17 17 17 17 17 16 16 16 16 16 16 15 15 15 15 15 15
23 22 23 22 22 22 22 22 22 22 22 22 22 22 23 23 22 22 21 20 19 19 18 18 17 17 17 17 17 17 17 17 16 16 16 16 16 15 15 15 15 15 15 15
23 22 23 22 22 22 22 22 22 22 22 22 23 22 23 22 22 22 22 20 20 19 18 18 17 17 17 17 17 16 17 16 16 16 16 15 15 15 15 15 15 15 15 15
23 23 22 22 22 22 22 23 22 22 22 22 22 22 22 23 22 22 21 20 19 19 18 18 17 17 17 17 17 16 16 16 16 16 16 15 15 15 15 15 15 15 15 15
23 23 23 23 23 23 23 23 22 22 22 23 22 22 23 22 21 21 20 20 19 19 18 18 17 17 17 17 16 16 16 16 16 16 16 15 15 15 15 15 15 14 14 14
23 23 22 22 22 23 23 23 23 23 23 22 23 23 23 22 21 21 20 19 19 19 18 17 17 17 16 16 16 16 16 16 16 16 16 15 15 15 15 15 15 14 14 14
23 23 22 22 22 22 23 23 22 22 22 22 22 23 23 22 21 21 20 20 19 18 18 17 17 16 16 16 16 16 16 16 16 16 15 15 15 15 15 15 14 14 14 14
23 23 22 22 22 22 22 22 22 22 22 22 22 23 23 22 22 21 21 19 19 18 18 17 16 16 16 16 16 16 16 15 15 15 15 15 15 15 15 14 14 14 14 14
22 23 23 22 22 21 22 22 22 22 22 21 22 22 22 22 21 21 20 19 18 18 17 17 16 16 16 16 16 16 15 15 15 15 15 15 15 15 14 14 14 14 14 13
21 22 22 22 22 21 21 21 21 22 22 22 21 22 22 22 21 20 19 19 18 17 17 16 16 16 16 15 15 16 15 15 15 15 15 15 14 14 14 14 14 13 13 13
21 22 22 22 22 22 21 21 21 21 21 22 22 22 22 22 21 20 19 18 18 17 17 16 16 15 15 15 15 15 15 15 15 15 15 14 14 14 14 13 13 13 13 13
21 22 22 22 21 21 21 21 21 21 21 21 22 21 22 22 21 20 19 18 17 17 16 16 15 15 15 15 15 15 15 15 14 14 14 14 14 14 14 13 13 13 13 13
21 21 21 21 21 20 20 21 21 20 21 21 21 21 22 21 20 19 19 18 17 17 16 16 16 15 15 15 15 15 15 14 14 14 14 14 14 14 13 13 13 13 13 13
21 21 21 21 21 20 20 21 21 20 21 21 21 21 21 20 19 19 18 17 17 16 16 16 16 15 15 15 15 14 14 14 14 14 14 14 13 13 13 13 13 13 13 13
20 20 20 20 20 19 21 20 20 20 20 20 20 20 20 19 18 17 17 17 16 16 16 16 16 15 15 15 15 14 14 14 14 14 13 13 13 13 13 13 13 13 12 12
19 20 20 20 20 20 20 20 19 19 20 20 20 19 18 17 18 18 16 16 16 15 15 15 15 15 15 15 14 14 14 14 13 13 13 13 13 13 13 13 13 12 12 12
18 19 20 19 19 19 20 19 18 19 20 19 19 19 18 18 19 19 16 15 15 15 15 15 15 15 14 14 14 14 13 13 13 13 13 13 12 12 12 12 12 12 12 12
18 18 18 19 19 20 19 18 18 19 20 18 18 17 17 17 18 16 15 15 14 14 14 14 14 14 14 14 14 13 13 13 13 13 12 12 12 12 12 12 12 12 12 12
19 18 18 19 18 19 17 17 18 19 18 17 17 17 16 16 15 15 14 14 14 14 14 14 14 14 14 14 13 13 13 13 12 12 12 12 12 12 12 11 11 11 11 11
18 18 19 19 18 17 16 16 16 16 17 16 16 15 15 15 14 14 14 14 14 13 13 13 13 13 13 13 13 13 13 12 12 12 12 12 11 11 11 11 11 11 11 11
17 16 17 17 17 16 15 15 15 15 15 15 14 14 14 14 14 13 13 13 13 13 13 13 13 13 13 13 13 12 12 12 11 11 11 11 11 11 11 10 10 10 10 10
16 16 16 16 17 16 15 14 14 14 14 14 13 13 13 13 13 13 13 13 13 13 13 13 12 12 12 12 12 12 11 11 11 11 11 10 10 10 10 10 10 10 10 10
15 15 16 16 16 16 15 14 13 13 13 13 13 13 13 13 12 12 12 12 12 12 12 12 12 12 12 11 11 11 11 11 11 10 10 10 10 10 10 10 10 10 10 10

GEFSCGP_850_meantemp_252.txt.gz
Temperature
25 24 24 24 24 25 24 24 23 24 24 24 23 23 23 23 23 22 22 22 21 20 20 20 19 19 19 19 19 18 18 18 17 17 17 17 17 16 16 16 16 16 16 16
25 24 25 26 25 25 24 24 23 24 24 24 23 23 24 23 23 23 22 22 21 21 20 19 19 19 19 19 18 18 18 18 17 17 17 17 16 16 16 16 16 16 16 16
24 24 25 25 25 25 25 24 24 24 24 25 24 23 23 24 23 23 22 22 21 21 20 19 19 19 19 18 18 18 18 18 17 17 17 16 16 16 16 16 16 16 16 16
25 25 25 25 25 25 24 25 25 24 23 23 24 22 23 23 23 23 22 22 22 21 20 19 19 19 19 18 18 18 18 17 17 17 17 16 16 16 16 16 16 16 16 16
24 25 25 24 25 25 24 25 25 25 24 23 24 23 23 24 22 22 22 22 22 21 20 19 19 19 18 18 18 18 18 18 17 17 17 16 16 16 16 16 16 15 15 15
25 25 25 25 25 25 25 25 25 25 24 22 24 23 22 23 23 23 22 22 21 21 20 20 19 19 18 18 18 18 17 17 17 17 17 16 16 16 16 16 15 15 15 15
25 25 25 25 25 25 25 23 22 22 22 23 25 24 23 24 24 24 23 22 21 21 20 20 19 18 18 18 17 17 17 17 17 17 16 16 16 16 16 16 15 15 15 15
24 24 25 25 25 24 25 24 22 22 22 24 25 24 23 24 24 24 23 22 21 21 20 20 19 18 18 18 17 17 17 17 17 16 16 16 16 16 16 16 15 15 15 15
24 24 25 26 26 25 24 24 25 24 24 23 24 24 23 24 24 23 23 22 21 21 20 20 19 18 18 18 17 17 17 17 16 16 16 16 16 16 16 15 15 15 15 15
25 24 25 26 25 25 25 25 24 23 22 22 23 23 22 23 23 23 23 22 21 21 20 20 19 18 18 17 17 17 17 16 16 16 16 16 16 16 16 15 15 15 15 15
25 24 25 25 24 24 25 24 24 23 23 22 22 22 24 23 23 23 23 22 21 21 20 20 19 18 18 17 17 17 16 16 16 16 16 16 16 15 15 15 15 15 15 15
25 24 24 25 25 26 25 25 24 22 22 23 22 22 25 24 24 23 23 22 21 20 20 19 18 18 17 17 17 16 16 16 16 16 16 16 15 15 15 15 15 15 15 14
24 24 23 23 24 24 24 24 24 24 23 22 22 22 24 24 23 23 22 21 21 20 19 19 18 18 17 17 16 16 16 16 16 15 15 15 15 15 15 15 15 14 14 14
22 23 23 22 23 24 24 24 24 23 22 22 22 22 23 23 23 22 22 21 20 20 19 18 18 17 17 17 16 16 16 16 15 15 15 15 15 15 15 14 14 14 14 14
24 23 24 24 24 24 24 24 24 23 23 22 23 23 23 23 23 22 22 21 20 20 19 18 18 17 17 16 16 16 16 15 15 15 14 14 14 14 14 14 14 14 14 13
24 23 23 23 24 24 24 24 24 23 23 23 23 22 23 23 22 22 21 21 20 19 19 18 18 17 17 16 16 16 15 15 15 15 15 14 14 14 14 14 14 13 13 13
23 23 22 22 24 24 23 23 23 23 23 23 22 22 23 22 22 21 20 20 19 19 18 18 17 17 16 16 16 16 15 15 15 14 14 14 14 14 14 13 13 13 13 13
22 22 22 22 22 21 22 24 23 23 23 23 23 22 22 22 21 20 20 19 18 18 17 17 17 17 16 16 16 16 15 15 14 14 14 14 14 14 13 13 13 13 13 13
23 22 21 21 21 22 22 23 23 22 22 22 22 22 21 21 20 20 19 18 18 17 17 17 16 16 16 16 16 15 15 15 14 14 14 14 13 13 13 13 13 13 12 12
22 22 21 21 20 20 21 22 22 22 21 21 21 21 20 20 19 18 18 17 17 17 16 16 16 16 16 16 15 15 15 14 14 14 13 13 13 13 13 13 13 12 12 12
21 21 20 20 20 21 21 21 21 20 20 21 20 20 20 19 18 18 17 16 16 16 16 15 15 15 15 15 15 15 14 14 14 13 13 13 13 12 12 12 12 12 12 12
21 20 20 20 20 19 20 21 20 20 20 20 19 19 19 18 17 17 16 16 15 15 15 15 15 15 14 14 14 14 14 14 13 13 13 12 12 12 12 12 12 11 11 11
21 21 20 20 19 19 19 19 19 19 19 19 18 18 18 17 16 16 15 15 15 15 14 14 14 14 14 14 14 13 13 13 13 12 12 12 12 11 11 11 11 11 11 11
21 21 20 20 19 19 19 18 18 18 18 18 17 17 17 16 16 15 15 14 14 14 14 13 13 13 13 13 13 13 13 12 12 12 12 11 11 11 11 10 10 10 10 10
19 19 19 19 19 18 18 17 17 17 17 16 16 16 16 15 15 15 14 14 14 13 13 13 13 13 12 12 12 12 12 12 11 11 11 11 11 11 10 10 10 10 10 10
18 18 18 17 18 17 17 16 16 16 16 16 15 15 15 14 14 14 14 13 13 13 13 12 12 12 12 12 12 11 11 11 11 11 11 10 10 10 10 10 10 10 10 10